Location: Stilling
(56.0622°N, 9.9882°E)
Time: 00:32:05
(UTC+00:00)

Cosmos 1151 Rocket - Pass Details

Date: 13 July 2020
Orbit: 591 x 617 km, 82.5° (Epoch: 03 August)

Event Time Altitude Azimuth Distance (km) Brightness Sun altitude
Rises 21:56:36 0° 345° (NNW) 2,874 8.7 -10.0°
Reaches altitude 10° 21:58:50 10° 343° (NNW) 1,961 7.3 -10.1°
Maximum altitude 22:03:07 63° 263° (W) 676 3.3 -10.3°
Enters shadow 22:06:54 13° 183° (S) 1,759 4.8 -10.5°
